contact:dominique.lefevre@mio.osupytheas.fr, maurice.libes@osupytheas.fr, didier.mallarino@osupytheas.fr
Project:EMSO http://www.emso-fr.org/EMSO-France
Depth: 2436.0 m
Title:EMSO Ligure Ouest : Data MII capteur MICROCAT
DateTime_Computer,Latitude,Longitude,Temperature,Conductivity,Pressure,DateTime_Instrument
DateTime_Computer,Latitude,Longitude,degC,S m-1,dbar,DateTime_Instrument
2023-03-21T00:01:42Z,42.805,6.029,13.3068,4.60112,2470.553,2023-3-21T02:04:25Z
2023-03-21T00:04:45Z,42.805,6.029,13.3069,4.60099,2470.577,2023-3-21T02:07:28Z
2023-03-21T00:07:48Z,42.805,6.029,13.3056,4.60108,2470.544,2023-3-21T02:10:31Z
2023-03-21T00:10:51Z,42.805,6.029,13.3061,4.60107,2470.544,2023-3-21T02:13:34Z
2023-03-21T00:13:55Z,42.805,6.029,13.3067,4.60105,2470.53,2023-3-21T02:16:37Z
2023-03-21T00:16:58Z,42.805,6.029,13.3077,4.60112,2470.567,2023-3-21T02:19:40Z
2023-03-21T00:20:01Z,42.805,6.029,13.3048,4.60108,2470.567,2023-3-21T02:22:43Z
2023-03-21T00:23:04Z,42.805,6.029,13.3074,4.60103,2470.52,2023-3-21T02:25:46Z
2023-03-21T00:26:07Z,42.805,6.029,13.3070,4.60112,2470.53,2023-3-21T02:28:50Z
2023-03-21T00:29:10Z,42.805,6.029,13.3067,4.60110,2470.52,2023-3-21T02:31:53Z
2023-03-21T00:32:13Z,42.805,6.029,13.3079,4.60107,2470.53,2023-3-21T02:34:56Z
2023-03-21T00:35:16Z,42.805,6.029,13.3053,4.60105,2470.52,2023-3-21T02:37:59Z
2023-03-21T00:38:19Z,42.805,6.029,13.3074,4.60109,2470.507,2023-3-21T02:41:02Z
2023-03-21T00:41:22Z,42.805,6.029,13.3061,4.60095,2470.52,2023-3-21T02:44:05Z
2023-03-21T00:44:25Z,42.805,6.029,13.3055,4.60114,2470.534,2023-3-21T02:47:08Z
2023-03-21T00:47:28Z,42.805,6.029,13.3048,4.60112,2470.53,2023-3-21T02:50:11Z
2023-03-21T00:50:32Z,42.805,6.029,13.3058,4.60110,2470.52,2023-3-21T02:53:14Z
2023-03-21T00:53:35Z,42.805,6.029,13.3057,4.60109,2470.53,2023-3-21T02:56:17Z
2023-03-21T00:56:38Z,42.805,6.029,13.3067,4.60112,2470.53,2023-3-21T02:59:20Z
2023-03-21T00:59:41Z,42.805,6.029,13.3062,4.60106,2470.544,2023-3-21T03:02:23Z
2023-03-21T01:02:44Z,42.805,6.029,13.3078,4.60107,2470.553,2023-3-21T03:05:27Z
2023-03-21T01:05:47Z,42.805,6.029,13.3070,4.60106,2470.544,2023-3-21T03:08:30Z
2023-03-21T01:08:50Z,42.805,6.029,13.3058,4.60110,2470.53,2023-3-21T03:11:33Z
2023-03-21T01:11:53Z,42.805,6.029,13.3059,4.60122,2470.483,2023-3-21T03:14:36Z
2023-03-21T01:14:56Z,42.805,6.029,13.3063,4.60104,2470.52,2023-3-21T03:17:39Z
2023-03-21T01:17:59Z,42.805,6.029,13.3073,4.60111,2470.52,2023-3-21T03:20:42Z
2023-03-21T01:21:02Z,42.805,6.029,13.3071,4.60100,2470.52,2023-3-21T03:23:45Z
2023-03-21T01:24:05Z,42.805,6.029,13.3061,4.60103,2470.507,2023-3-21T03:26:48Z
2023-03-21T01:27:08Z,42.805,6.029,13.3057,4.60104,2470.553,2023-3-21T03:29:51Z
2023-03-21T01:30:12Z,42.805,6.029,13.3056,4.60103,2470.507,2023-3-21T03:32:54Z
2023-03-21T01:33:15Z,42.805,6.029,13.3075,4.60107,2470.483,2023-3-21T03:35:57Z
2023-03-21T01:36:18Z,42.805,6.029,13.3067,4.60102,2470.544,2023-3-21T03:39:00Z
2023-03-21T01:39:21Z,42.805,6.029,13.3081,4.60103,2470.497,2023-3-21T03:42:03Z
2023-03-21T01:42:24Z,42.805,6.029,13.3080,4.60118,2470.507,2023-3-21T03:45:07Z
2023-03-21T01:45:27Z,42.805,6.029,13.3067,4.60113,2470.53,2023-3-21T03:48:10Z
2023-03-21T01:48:30Z,42.805,6.029,13.3055,4.60099,2470.516,2023-3-21T03:51:13Z
2023-03-21T01:51:33Z,42.805,6.029,13.3070,4.60098,2470.516,2023-3-21T03:54:16Z
2023-03-21T01:54:36Z,42.805,6.029,13.3069,4.60094,2470.52,2023-3-21T03:57:19Z
2023-03-21T01:57:39Z,42.805,6.029,13.3062,4.60103,2470.544,2023-3-21T04:00:22Z
2023-03-21T02:00:42Z,42.805,6.029,13.3076,4.60100,2470.53,2023-3-21T04:03:25Z
2023-03-21T02:03:45Z,42.805,6.029,13.3056,4.60102,2470.507,2023-3-21T04:06:28Z
2023-03-21T02:06:48Z,42.805,6.029,13.3059,4.60102,2470.53,2023-3-21T04:09:31Z
2023-03-21T02:09:52Z,42.805,6.029,13.3076,4.60114,2470.553,2023-3-21T04:12:34Z
2023-03-21T02:12:55Z,42.805,6.029,13.3070,4.60103,2470.553,2023-3-21T04:15:37Z
2023-03-21T02:15:58Z,42.805,6.029,13.3067,4.60105,2470.53,2023-3-21T04:18:40Z
2023-03-21T02:19:01Z,42.805,6.029,13.3058,4.60101,2470.53,2023-3-21T04:21:43Z
2023-03-21T02:22:04Z,42.805,6.029,13.3039,4.60131,2470.53,2023-3-21T04:24:47Z
2023-03-21T02:25:07Z,42.805,6.029,13.3048,4.60107,2470.553,2023-3-21T04:27:50Z
2023-03-21T02:28:10Z,42.805,6.029,13.3067,4.60104,2470.567,2023-3-21T04:30:53Z
2023-03-21T02:31:13Z,42.805,6.029,13.3059,4.60115,2470.53,2023-3-21T04:33:56Z
2023-03-21T02:34:16Z,42.805,6.029,13.3066,4.60109,2470.577,2023-3-21T04:36:59Z
2023-03-21T02:37:19Z,42.805,6.029,13.3065,4.60119,2470.53,2023-3-21T04:40:02Z
2023-03-21T02:40:22Z,42.805,6.029,13.3059,4.60125,2470.591,2023-3-21T04:43:05Z
2023-03-21T02:43:25Z,42.805,6.029,13.3065,4.60101,2470.553,2023-3-21T04:46:08Z
2023-03-21T02:46:29Z,42.805,6.029,13.3046,4.60107,2470.553,2023-3-21T04:49:11Z
2023-03-21T02:49:32Z,42.805,6.029,13.3054,4.60125,2470.614,2023-3-21T04:52:14Z
2023-03-21T02:52:35Z,42.805,6.029,13.3089,4.60139,2470.544,2023-3-21T04:55:17Z
2023-03-21T02:55:38Z,42.805,6.029,13.3069,4.60117,2470.591,2023-3-21T04:58:20Z
2023-03-21T02:58:41Z,42.805,6.029,13.3060,4.60110,2470.553,2023-3-21T05:01:24Z
2023-03-21T03:01:44Z,42.805,6.029,13.3081,4.60104,2470.577,2023-3-21T05:04:27Z
2023-03-21T03:04:47Z,42.805,6.029,13.3024,4.60114,2470.614,2023-3-21T05:07:30Z
2023-03-21T03:07:50Z,42.805,6.029,13.3019,4.60130,2470.577,2023-3-21T05:10:33Z
2023-03-21T03:10:53Z,42.805,6.029,13.3021,4.60110,2470.591,2023-3-21T05:13:36Z
2023-03-21T03:13:56Z,42.805,6.029,13.3083,4.60119,2470.577,2023-3-21T05:16:39Z
2023-03-21T03:16:59Z,42.805,6.029,13.3019,4.60115,2470.6,2023-3-21T05:19:42Z
2023-03-21T03:20:02Z,42.805,6.029,13.3018,4.60084,2470.614,2023-3-21T05:22:45Z
2023-03-21T03:23:05Z,42.805,6.029,13.3015,4.60087,2470.624,2023-3-21T05:25:48Z
2023-03-21T03:26:09Z,42.805,6.029,13.3016,4.60087,2470.614,2023-3-21T05:28:51Z
2023-03-21T03:29:12Z,42.805,6.029,13.3017,4.60095,2470.6,2023-3-21T05:31:54Z
2023-03-21T03:32:15Z,42.805,6.029,13.3016,4.60088,2470.614,2023-3-21T05:34:57Z
2023-03-21T03:35:18Z,42.805,6.029,13.3014,4.60094,2470.577,2023-3-21T05:38:01Z
2023-03-21T03:38:21Z,42.805,6.029,13.3011,4.60092,2470.624,2023-3-21T05:41:04Z
2023-03-21T03:41:24Z,42.805,6.029,13.3015,4.60087,2470.6,2023-3-21T05:44:07Z
2023-03-21T03:44:27Z,42.805,6.029,13.3014,4.60084,2470.624,2023-3-21T05:47:10Z
2023-03-21T03:47:30Z,42.805,6.029,13.3020,4.60095,2470.693,2023-3-21T05:50:13Z
2023-03-21T03:50:33Z,42.805,6.029,13.3019,4.60087,2470.646,2023-3-21T05:53:16Z
2023-03-21T03:53:36Z,42.805,6.029,13.3018,4.60091,2470.646,2023-3-21T05:56:19Z
2023-03-21T03:56:39Z,42.805,6.029,13.3014,4.60090,2470.684,2023-3-21T05:59:22Z
2023-03-21T03:59:42Z,42.805,6.029,13.3014,4.60087,2470.67,2023-3-21T06:02:25Z
2023-03-21T04:02:46Z,42.805,6.029,13.3018,4.60102,2470.661,2023-3-21T06:05:28Z
2023-03-21T04:05:49Z,42.805,6.029,13.3019,4.60097,2470.67,2023-3-21T06:08:31Z
2023-03-21T04:08:52Z,42.805,6.029,13.3020,4.60096,2470.684,2023-3-21T06:11:34Z
2023-03-21T04:11:55Z,42.805,6.029,13.3016,4.60132,2470.646,2023-3-21T06:14:38Z
2023-03-21T04:14:58Z,42.805,6.029,13.3019,4.60103,2470.707,2023-3-21T06:17:41Z
2023-03-21T04:18:01Z,42.805,6.029,13.3015,4.60095,2470.693,2023-3-21T06:20:44Z
2023-03-21T04:21:04Z,42.805,6.029,13.3014,4.60097,2470.661,2023-3-21T06:23:47Z
2023-03-21T04:24:07Z,42.805,6.029,13.3017,4.60122,2470.67,2023-3-21T06:26:50Z
2023-03-21T04:27:10Z,42.805,6.029,13.3014,4.60109,2470.707,2023-3-21T06:29:53Z
2023-03-21T04:30:13Z,42.805,6.029,13.3020,4.60131,2470.693,2023-3-21T06:32:56Z
2023-03-21T04:33:16Z,42.805,6.029,13.3023,4.60117,2470.693,2023-3-21T06:35:59Z
2023-03-21T04:36:19Z,42.805,6.029,13.3019,4.60126,2470.707,2023-3-21T06:39:02Z
2023-03-21T04:39:22Z,42.805,6.029,13.3021,4.60152,2470.693,2023-3-21T06:42:05Z
2023-03-21T04:42:26Z,42.805,6.029,13.3025,4.60149,2470.717,2023-3-21T06:45:08Z
2023-03-21T04:45:29Z,42.805,6.029,13.3025,4.60167,2470.73,2023-3-21T06:48:11Z
2023-03-21T04:48:32Z,42.805,6.029,13.3038,4.60155,2470.73,2023-3-21T06:51:15Z
2023-03-21T04:51:35Z,42.805,6.029,13.3046,4.60137,2470.754,2023-3-21T06:54:18Z
2023-03-21T04:54:38Z,42.805,6.029,13.3051,4.60124,2470.74,2023-3-21T06:57:21Z
2023-03-21T04:57:41Z,42.805,6.029,13.3056,4.60123,2470.717,2023-3-21T07:00:24Z
2023-03-21T05:00:44Z,42.805,6.029,13.3061,4.60134,2470.763,2023-3-21T07:03:27Z
2023-03-21T05:03:47Z,42.805,6.029,13.3056,4.60132,2470.777,2023-3-21T07:06:30Z
2023-03-21T05:06:50Z,42.805,6.029,13.3041,4.60122,2470.717,2023-3-21T07:09:33Z
2023-03-21T05:09:53Z,42.805,6.029,13.3125,4.60104,2470.74,2023-3-21T07:12:36Z
2023-03-21T05:12:56Z,42.805,6.029,13.3163,4.60115,2470.754,2023-3-21T07:15:39Z
2023-03-21T05:15:59Z,42.805,6.029,13.3176,4.60094,2470.754,2023-3-21T07:18:42Z
2023-03-21T05:19:03Z,42.805,6.029,13.3158,4.60132,2470.777,2023-3-21T07:21:45Z
2023-03-21T05:22:06Z,42.805,6.029,13.3056,4.60107,2470.763,2023-3-21T07:24:48Z
2023-03-21T05:25:09Z,42.805,6.029,13.3088,4.60114,2470.763,2023-3-21T07:27:51Z
2023-03-21T05:28:12Z,42.805,6.029,13.3102,4.60095,2470.763,2023-3-21T07:30:55Z
2023-03-21T05:31:15Z,42.805,6.029,13.3106,4.60103,2470.8,2023-3-21T07:33:58Z
2023-03-21T05:34:18Z,42.805,6.029,13.3109,4.60137,2470.777,2023-3-21T07:37:01Z
2023-03-21T05:37:21Z,42.805,6.029,13.3101,4.60158,2470.763,2023-3-21T07:40:04Z
2023-03-21T05:40:24Z,42.805,6.029,13.3108,4.60143,2470.777,2023-3-21T07:43:07Z
2023-03-21T05:43:27Z,42.805,6.029,13.3101,4.60145,2470.8,2023-3-21T07:46:10Z
2023-03-21T05:46:30Z,42.805,6.029,13.3091,4.60154,2470.787,2023-3-21T07:49:13Z
2023-03-21T05:49:33Z,42.805,6.029,13.3108,4.60135,2470.763,2023-3-21T07:52:16Z
2023-03-21T05:52:36Z,42.805,6.029,13.3094,4.60158,2470.787,2023-3-21T07:55:19Z
2023-03-21T05:55:39Z,42.805,6.029,13.3087,4.60132,2470.787,2023-3-21T07:58:22Z
2023-03-21T05:58:43Z,42.805,6.029,13.3081,4.60125,2470.787,2023-3-21T08:01:25Z
2023-03-21T06:01:46Z,42.805,6.029,13.3071,4.60110,2470.8,2023-3-21T08:04:28Z
2023-03-21T06:04:49Z,42.805,6.029,13.3062,4.60119,2470.787,2023-3-21T08:07:32Z
2023-03-21T06:07:52Z,42.805,6.029,13.3050,4.60173,2470.824,2023-3-21T08:10:35Z
2023-03-21T06:10:55Z,42.805,6.029,13.3047,4.60167,2470.777,2023-3-21T08:13:38Z
2023-03-21T06:13:58Z,42.805,6.029,13.3063,4.60171,2470.763,2023-3-21T08:16:41Z
2023-03-21T06:17:01Z,42.805,6.029,13.3041,4.60187,2470.8,2023-3-21T08:19:44Z
2023-03-21T06:20:04Z,42.805,6.029,13.3048,4.60125,2470.81,2023-3-21T08:22:47Z
2023-03-21T06:23:07Z,42.805,6.029,13.3039,4.60193,2470.777,2023-3-21T08:25:50Z
2023-03-21T06:26:10Z,42.805,6.029,13.3040,4.60173,2470.787,2023-3-21T08:28:53Z
2023-03-21T06:29:13Z,42.805,6.029,13.3035,4.60180,2470.81,2023-3-21T08:31:56Z
2023-03-21T06:32:16Z,42.805,6.029,13.3041,4.60174,2470.763,2023-3-21T08:34:59Z
2023-03-21T06:35:20Z,42.805,6.029,13.3041,4.60188,2470.824,2023-3-21T08:38:02Z
2023-03-21T06:38:23Z,42.805,6.029,13.3056,4.60188,2470.8,2023-3-21T08:41:05Z
2023-03-21T06:41:26Z,42.805,6.029,13.3065,4.60196,2470.81,2023-3-21T08:44:08Z
2023-03-21T06:44:29Z,42.805,6.029,13.3046,4.60162,2470.8,2023-3-21T08:47:12Z
2023-03-21T06:47:32Z,42.805,6.029,13.3051,4.60174,2470.787,2023-3-21T08:50:15Z
2023-03-21T06:50:35Z,42.805,6.029,13.3046,4.60173,2470.81,2023-3-21T08:53:18Z
2023-03-21T06:53:38Z,42.805,6.029,13.3053,4.60170,2470.81,2023-3-21T08:56:21Z
2023-03-21T06:56:41Z,42.805,6.029,13.3053,4.60153,2470.8,2023-3-21T08:59:24Z
2023-03-21T06:59:44Z,42.805,6.029,13.3058,4.60153,2470.833,2023-3-21T09:02:27Z
2023-03-21T07:02:47Z,42.805,6.029,13.3061,4.60160,2470.81,2023-3-21T09:05:30Z
2023-03-21T07:05:50Z,42.805,6.029,13.3076,4.60144,2470.833,2023-3-21T09:08:33Z
2023-03-21T07:08:53Z,42.805,6.029,13.3089,4.60156,2470.824,2023-3-21T09:11:36Z
2023-03-21T07:11:57Z,42.805,6.029,13.3091,4.60151,2470.777,2023-3-21T09:14:39Z
2023-03-21T07:15:00Z,42.805,6.029,13.3071,4.60164,2470.787,2023-3-21T09:17:42Z
2023-03-21T07:18:03Z,42.805,6.029,13.3054,4.60165,2470.787,2023-3-21T09:20:45Z
2023-03-21T07:21:06Z,42.805,6.029,13.3062,4.60138,2470.824,2023-3-21T09:23:49Z
2023-03-21T07:24:09Z,42.805,6.029,13.3051,4.60132,2470.787,2023-3-21T09:26:52Z
2023-03-21T07:27:12Z,42.805,6.029,13.3068,4.60167,2470.81,2023-3-21T09:29:55Z
2023-03-21T07:30:15Z,42.805,6.029,13.3073,4.60167,2470.8,2023-3-21T09:32:58Z
2023-03-21T07:33:18Z,42.805,6.029,13.3060,4.60150,2470.847,2023-3-21T09:36:01Z
2023-03-21T07:36:21Z,42.805,6.029,13.3065,4.60158,2470.787,2023-3-21T09:39:04Z
2023-03-21T07:39:24Z,42.805,6.029,13.3063,4.60160,2470.81,2023-3-21T09:42:07Z
2023-03-21T07:42:27Z,42.805,6.029,13.3039,4.60171,2470.81,2023-3-21T09:45:10Z
2023-03-21T07:45:30Z,42.805,6.029,13.3056,4.60146,2470.787,2023-3-21T09:48:13Z
2023-03-21T07:48:33Z,42.805,6.029,13.3078,4.60184,2470.824,2023-3-21T09:51:16Z
2023-03-21T07:51:37Z,42.805,6.029,13.3077,4.60155,2470.8,2023-3-21T09:54:19Z
2023-03-21T07:54:40Z,42.805,6.029,13.3070,4.60128,2470.787,2023-3-21T09:57:22Z
2023-03-21T07:57:43Z,42.805,6.029,13.3079,4.60137,2470.787,2023-3-21T10:00:26Z
2023-03-21T08:00:46Z,42.805,6.029,13.3069,4.60164,2470.81,2023-3-21T10:03:29Z
2023-03-21T08:03:49Z,42.805,6.029,13.3051,4.60170,2470.763,2023-3-21T10:06:32Z
2023-03-21T08:06:52Z,42.805,6.029,13.3073,4.60152,2470.81,2023-3-21T10:09:35Z
2023-03-21T08:09:55Z,42.805,6.029,13.3097,4.60162,2470.787,2023-3-21T10:12:38Z
2023-03-21T08:12:58Z,42.805,6.029,13.3070,4.60148,2470.8,2023-3-21T10:15:41Z
2023-03-21T08:16:01Z,42.805,6.029,13.3087,4.60182,2470.824,2023-3-21T10:18:44Z
2023-03-21T08:19:04Z,42.805,6.029,13.3084,4.60165,2470.81,2023-3-21T10:21:47Z
2023-03-21T08:22:07Z,42.805,6.029,13.3087,4.60165,2470.74,2023-3-21T10:24:50Z
2023-03-21T08:25:10Z,42.805,6.029,13.3069,4.60155,2470.824,2023-3-21T10:27:53Z
2023-03-21T08:28:14Z,42.805,6.029,13.3052,4.60180,2470.8,2023-3-21T10:30:56Z
2023-03-21T08:31:17Z,42.805,6.029,13.3069,4.60162,2470.81,2023-3-21T10:33:59Z
2023-03-21T08:34:20Z,42.805,6.029,13.3087,4.60166,2470.787,2023-3-21T10:37:03Z
2023-03-21T08:37:23Z,42.805,6.029,13.3073,4.60170,2470.81,2023-3-21T10:40:06Z
2023-03-21T08:40:26Z,42.805,6.029,13.3077,4.60167,2470.777,2023-3-21T10:43:09Z
2023-03-21T08:43:29Z,42.805,6.029,13.3092,4.60166,2470.787,2023-3-21T10:46:12Z
2023-03-21T08:46:32Z,42.805,6.029,13.3064,4.60127,2470.777,2023-3-21T10:49:15Z
2023-03-21T08:49:35Z,42.805,6.029,13.3067,4.60125,2470.8,2023-3-21T10:52:18Z
2023-03-21T08:52:38Z,42.805,6.029,13.3044,4.60141,2470.763,2023-3-21T10:55:21Z
2023-03-21T08:55:41Z,42.805,6.029,13.3060,4.60121,2470.763,2023-3-21T10:58:24Z
2023-03-21T08:58:44Z,42.805,6.029,13.3059,4.60127,2470.8,2023-3-21T11:01:27Z
2023-03-21T09:01:47Z,42.805,6.029,13.3063,4.60125,2470.787,2023-3-21T11:04:30Z
2023-03-21T09:04:51Z,42.805,6.029,13.3063,4.60116,2470.777,2023-3-21T11:07:33Z
2023-03-21T09:07:54Z,42.805,6.029,13.3044,4.60135,2470.763,2023-3-21T11:10:36Z
2023-03-21T09:10:57Z,42.805,6.029,13.3052,4.60121,2470.763,2023-3-21T11:13:40Z
2023-03-21T09:14:00Z,42.805,6.029,13.3071,4.60149,2470.763,2023-3-21T11:16:43Z
2023-03-21T09:17:03Z,42.805,6.029,13.3047,4.60105,2470.763,2023-3-21T11:19:46Z
2023-03-21T09:20:06Z,42.805,6.029,13.3058,4.60110,2470.74,2023-3-21T11:22:49Z
2023-03-21T09:23:09Z,42.805,6.029,13.3061,4.60109,2470.763,2023-3-21T11:25:52Z
2023-03-21T09:26:12Z,42.805,6.029,13.3059,4.60109,2470.74,2023-3-21T11:28:55Z
2023-03-21T09:29:15Z,42.805,6.029,13.3036,4.60091,2470.717,2023-3-21T11:31:58Z
2023-03-21T09:32:18Z,42.805,6.029,13.3035,4.60099,2470.763,2023-3-21T11:35:01Z
2023-03-21T09:35:21Z,42.805,6.029,13.3044,4.60112,2470.754,2023-3-21T11:38:04Z
2023-03-21T09:38:24Z,42.805,6.029,13.3052,4.60094,2470.754,2023-3-21T11:41:07Z
2023-03-21T09:41:28Z,42.805,6.029,13.3042,4.60103,2470.73,2023-3-21T11:44:10Z
2023-03-21T09:44:31Z,42.805,6.029,13.3048,4.60088,2470.717,2023-3-21T11:47:14Z
2023-03-21T09:47:34Z,42.805,6.029,13.3041,4.60106,2470.777,2023-3-21T11:50:17Z
2023-03-21T09:50:37Z,42.805,6.029,13.3060,4.60097,2470.693,2023-3-21T11:53:20Z
2023-03-21T09:53:40Z,42.805,6.029,13.3031,4.60092,2470.74,2023-3-21T11:56:23Z
2023-03-21T09:56:43Z,42.805,6.029,13.3029,4.60106,2470.73,2023-3-21T11:59:26Z
2023-03-21T09:59:46Z,42.805,6.029,13.3031,4.60097,2470.74,2023-3-21T12:02:29Z
2023-03-21T10:02:49Z,42.805,6.029,13.3040,4.60113,2470.73,2023-3-21T12:05:32Z
2023-03-21T10:05:52Z,42.805,6.029,13.3031,4.60110,2470.73,2023-3-21T12:08:35Z
2023-03-21T10:08:55Z,42.805,6.029,13.3038,4.60089,2470.693,2023-3-21T12:11:38Z
2023-03-21T10:11:58Z,42.805,6.029,13.3039,4.60089,2470.717,2023-3-21T12:14:41Z
2023-03-21T10:15:01Z,42.805,6.029,13.3042,4.60099,2470.754,2023-3-21T12:17:44Z
2023-03-21T10:18:05Z,42.805,6.029,13.3052,4.60099,2470.73,2023-3-21T12:20:47Z
2023-03-21T10:21:08Z,42.805,6.029,13.3031,4.60101,2470.717,2023-3-21T12:23:51Z
2023-03-21T10:24:11Z,42.805,6.029,13.3042,4.60111,2470.679,2023-3-21T12:26:54Z
2023-03-21T10:27:14Z,42.805,6.029,13.3047,4.60100,2470.693,2023-3-21T12:29:57Z
2023-03-21T10:30:17Z,42.805,6.029,13.3039,4.60092,2470.707,2023-3-21T12:33:00Z
2023-03-21T10:33:20Z,42.805,6.029,13.3037,4.60087,2470.707,2023-3-21T12:36:03Z
2023-03-21T10:36:23Z,42.805,6.029,13.3040,4.60082,2470.717,2023-3-21T12:39:06Z
2023-03-21T10:39:26Z,42.805,6.029,13.3034,4.60092,2470.67,2023-3-21T12:42:09Z
2023-03-21T10:42:29Z,42.805,6.029,13.3031,4.60089,2470.693,2023-3-21T12:45:12Z
2023-03-21T10:45:32Z,42.805,6.029,13.3039,4.60097,2470.684,2023-3-21T12:48:15Z
2023-03-21T10:48:35Z,42.805,6.029,13.3037,4.60084,2470.693,2023-3-21T12:51:18Z
2023-03-21T10:51:39Z,42.805,6.029,13.3033,4.60088,2470.684,2023-3-21T12:54:21Z
2023-03-21T10:54:42Z,42.805,6.029,13.3036,4.60097,2470.656,2023-3-21T12:57:25Z
2023-03-21T10:57:45Z,42.805,6.029,13.3040,4.60090,2470.67,2023-3-21T13:00:28Z
2023-03-21T11:00:48Z,42.805,6.029,13.3043,4.60101,2470.693,2023-3-21T13:03:31Z
2023-03-21T11:03:51Z,42.805,6.029,13.3048,4.60099,2470.646,2023-3-21T13:06:34Z
2023-03-21T11:06:54Z,42.805,6.029,13.3039,4.60109,2470.67,2023-3-21T13:09:37Z
2023-03-21T11:09:57Z,42.805,6.029,13.3050,4.60099,2470.67,2023-3-21T13:12:40Z
2023-03-21T11:13:00Z,42.805,6.029,13.3052,4.60092,2470.646,2023-3-21T13:15:43Z
2023-03-21T11:16:03Z,42.805,6.029,13.3041,4.60095,2470.624,2023-3-21T13:18:46Z
2023-03-21T11:19:06Z,42.805,6.029,13.3038,4.60095,2470.661,2023-3-21T13:21:49Z
2023-03-21T11:22:09Z,42.805,6.029,13.3041,4.60082,2470.67,2023-3-21T13:24:52Z
2023-03-21T11:25:12Z,42.805,6.029,13.3037,4.60092,2470.661,2023-3-21T13:27:55Z
2023-03-21T11:28:16Z,42.805,6.029,13.3044,4.60092,2470.624,2023-3-21T13:30:58Z
2023-03-21T11:31:19Z,42.805,6.029,13.3041,4.60079,2470.637,2023-3-21T13:34:02Z
2023-03-21T11:34:22Z,42.805,6.029,13.3046,4.60084,2470.646,2023-3-21T13:37:05Z
2023-03-21T11:37:25Z,42.805,6.029,13.3042,4.60086,2470.67,2023-3-21T13:40:08Z
2023-03-21T11:40:28Z,42.805,6.029,13.3038,4.60091,2470.67,2023-3-21T13:43:11Z
2023-03-21T11:43:31Z,42.805,6.029,13.3035,4.60090,2470.624,2023-3-21T13:46:14Z
2023-03-21T11:46:34Z,42.805,6.029,13.3043,4.60088,2470.637,2023-3-21T13:49:17Z
2023-03-21T11:49:37Z,42.805,6.029,13.3028,4.60080,2470.637,2023-3-21T13:52:20Z
2023-03-21T11:52:40Z,42.805,6.029,13.3031,4.60089,2470.6,2023-3-21T13:55:23Z
2023-03-21T11:55:43Z,42.805,6.029,13.3039,4.60089,2470.586,2023-3-21T13:58:26Z
2023-03-21T11:58:46Z,42.805,6.029,13.3041,4.60092,2470.624,2023-3-21T14:01:29Z
2023-03-21T12:01:49Z,42.805,6.029,13.3038,4.60087,2470.637,2023-3-21T14:04:32Z
2023-03-21T12:04:53Z,42.805,6.029,13.3035,4.60087,2470.624,2023-3-21T14:07:35Z
2023-03-21T12:07:56Z,42.805,6.029,13.3032,4.60088,2470.6,2023-3-21T14:10:39Z
2023-03-21T12:10:59Z,42.805,6.029,13.3034,4.60084,2470.6,2023-3-21T14:13:42Z
2023-03-21T12:14:02Z,42.805,6.029,13.3031,4.60087,2470.624,2023-3-21T14:16:45Z
2023-03-21T12:17:05Z,42.805,6.029,13.3030,4.60085,2470.614,2023-3-21T14:19:48Z
2023-03-21T12:20:08Z,42.805,6.029,13.3032,4.60084,2470.591,2023-3-21T14:22:51Z
2023-03-21T12:23:11Z,42.805,6.029,13.3031,4.60085,2470.6,2023-3-21T14:25:54Z
2023-03-21T12:26:14Z,42.805,6.029,13.3034,4.60087,2470.577,2023-3-21T14:28:57Z
2023-03-21T12:29:17Z,42.805,6.029,13.3035,4.60086,2470.577,2023-3-21T14:32:00Z
2023-03-21T12:32:20Z,42.805,6.029,13.3031,4.60083,2470.577,2023-3-21T14:35:03Z
2023-03-21T12:35:23Z,42.805,6.029,13.3029,4.60089,2470.567,2023-3-21T14:38:06Z
2023-03-21T12:38:26Z,42.805,6.029,13.3043,4.60088,2470.53,2023-3-21T14:41:09Z
2023-03-21T12:41:30Z,42.805,6.029,13.3034,4.60090,2470.6,2023-3-21T14:44:12Z
2023-03-21T12:44:33Z,42.805,6.029,13.3034,4.60085,2470.577,2023-3-21T14:47:16Z
2023-03-21T12:47:36Z,42.805,6.029,13.3031,4.60087,2470.553,2023-3-21T14:50:19Z
2023-03-21T12:50:39Z,42.805,6.029,13.3044,4.60088,2470.577,2023-3-21T14:53:22Z
2023-03-21T12:53:42Z,42.805,6.029,13.3031,4.60091,2470.553,2023-3-21T14:56:25Z
2023-03-21T12:56:45Z,42.805,6.029,13.3038,4.60086,2470.577,2023-3-21T14:59:28Z
2023-03-21T12:59:48Z,42.805,6.029,13.3030,4.60082,2470.553,2023-3-21T15:02:31Z
2023-03-21T13:02:51Z,42.805,6.029,13.3035,4.60093,2470.591,2023-3-21T15:05:34Z
2023-03-21T13:05:54Z,42.805,6.029,13.3037,4.60087,2470.544,2023-3-21T15:08:37Z
2023-03-21T13:08:57Z,42.805,6.029,13.3029,4.60088,2470.577,2023-3-21T15:11:40Z
2023-03-21T13:12:00Z,42.805,6.029,13.3032,4.60084,2470.553,2023-3-21T15:14:43Z
2023-03-21T13:15:04Z,42.805,6.029,13.3036,4.60084,2470.553,2023-3-21T15:17:46Z
2023-03-21T13:18:07Z,42.805,6.029,13.3034,4.60083,2470.53,2023-3-21T15:20:50Z
2023-03-21T13:21:10Z,42.805,6.029,13.3034,4.60084,2470.53,2023-3-21T15:23:53Z
2023-03-21T13:24:13Z,42.805,6.029,13.3029,4.60086,2470.544,2023-3-21T15:26:56Z
2023-03-21T13:27:16Z,42.805,6.029,13.3036,4.60082,2470.53,2023-3-21T15:29:59Z
2023-03-21T13:30:18Z,42.805,6.029,13.3035,4.60081,2470.53,2023-3-21T15:33:01Z
2023-03-21T13:33:21Z,42.805,6.029,13.3032,4.60092,2470.544,2023-3-21T15:36:04Z
2023-03-21T13:36:24Z,42.805,6.029,13.3031,4.60081,2470.544,2023-3-21T15:39:07Z
2023-03-21T13:39:27Z,42.805,6.029,13.3038,4.60089,2470.577,2023-3-21T15:42:10Z
2023-03-21T13:42:30Z,42.805,6.029,13.3029,4.60083,2470.577,2023-3-21T15:45:13Z
2023-03-21T13:45:33Z,42.805,6.029,13.3026,4.60088,2470.577,2023-3-21T15:48:16Z
2023-03-21T13:48:36Z,42.805,6.029,13.3030,4.60089,2470.53,2023-3-21T15:51:19Z
2023-03-21T13:51:39Z,42.805,6.029,13.3031,4.60088,2470.544,2023-3-21T15:54:22Z
2023-03-21T13:54:42Z,42.805,6.029,13.3029,4.60084,2470.591,2023-3-21T15:57:25Z
2023-03-21T13:57:45Z,42.805,6.029,13.3033,4.60081,2470.53,2023-3-21T16:00:28Z
2023-03-21T14:00:49Z,42.805,6.029,13.3030,4.60089,2470.544,2023-3-21T16:03:32Z
2023-03-21T14:03:52Z,42.805,6.029,13.3036,4.60084,2470.544,2023-3-21T16:06:35Z
2023-03-21T14:06:55Z,42.805,6.029,13.3039,4.60090,2470.53,2023-3-21T16:09:38Z
2023-03-21T14:09:58Z,42.805,6.029,13.3032,4.60088,2470.507,2023-3-21T16:12:41Z
2023-03-21T14:13:01Z,42.805,6.029,13.3034,4.60081,2470.553,2023-3-21T16:15:44Z
2023-03-21T14:16:04Z,42.805,6.029,13.3029,4.60087,2470.53,2023-3-21T16:18:47Z
2023-03-21T14:19:07Z,42.805,6.029,13.3034,4.60087,2470.53,2023-3-21T16:21:50Z
2023-03-21T14:22:10Z,42.805,6.029,13.3031,4.60088,2470.53,2023-3-21T16:24:53Z
2023-03-21T14:25:13Z,42.805,6.029,13.3029,4.60081,2470.53,2023-3-21T16:27:56Z
2023-03-21T14:28:16Z,42.805,6.029,13.3027,4.60083,2470.53,2023-3-21T16:30:59Z
2023-03-21T14:31:19Z,42.805,6.029,13.3029,4.60094,2470.553,2023-3-21T16:34:02Z
2023-03-21T14:34:23Z,42.805,6.029,13.3026,4.60085,2470.567,2023-3-21T16:37:05Z
2023-03-21T14:37:26Z,42.805,6.029,13.3026,4.60104,2470.544,2023-3-21T16:40:09Z
2023-03-21T14:40:29Z,42.805,6.029,13.3028,4.60078,2470.507,2023-3-21T16:43:12Z
2023-03-21T14:43:32Z,42.805,6.029,13.3034,4.60084,2470.544,2023-3-21T16:46:15Z
2023-03-21T14:46:35Z,42.805,6.029,13.3026,4.60082,2470.567,2023-3-21T16:49:18Z
2023-03-21T14:49:38Z,42.805,6.029,13.3030,4.60089,2470.52,2023-3-21T16:52:21Z
2023-03-21T14:52:41Z,42.805,6.029,13.3030,4.60079,2470.544,2023-3-21T16:55:24Z
2023-03-21T14:55:44Z,42.805,6.029,13.3039,4.60086,2470.544,2023-3-21T16:58:27Z
2023-03-21T14:58:47Z,42.805,6.029,13.3030,4.60092,2470.53,2023-3-21T17:01:30Z
2023-03-21T15:01:50Z,42.805,6.029,13.3039,4.60087,2470.577,2023-3-21T17:04:33Z
2023-03-21T15:04:53Z,42.805,6.029,13.3032,4.60084,2470.567,2023-3-21T17:07:36Z
2023-03-21T15:07:56Z,42.805,6.029,13.3052,4.60087,2470.567,2023-3-21T17:10:39Z
2023-03-21T15:10:59Z,42.805,6.029,13.3034,4.60097,2470.53,2023-3-21T17:13:42Z
2023-03-21T15:14:03Z,42.805,6.029,13.3036,4.60101,2470.553,2023-3-21T17:16:46Z